FW9150 Weather Reports


time (UTC)temp
F
wind
direction
speed
knots
gust
knots
rain 1hr
in
rain 24hr
in
rain mn
in
humidity
%
barometer
mb
20260831165614 70 158 1.7 3.5 0.00 0.00 0.00 33 1020.9
20260831164615 71 199 1.7 2.6 0.00 0.00 0.00 34 1020.8
20260831163715 71 112 0.0 1.7 0.00 0.00 0.00 39 1020.8
20260831162813 70 135 0.9 0.9 0.00 0.00 0.00 40 1020.9
20260831161815 69 225 0.0 0.0 0.00 0.00 0.00 41 1020.9
20260831160815 68 157 0.0 0.9 0.00 0.00 0.00 45 1021.0
20260831155813 65 209 0.0 1.7 0.00 0.00 0.00 47 1021.1
20260831154817 63 225 0.0 1.7 0.00 0.00 0.00 51 1021.3
20260831153814 60 157 0.0 0.0 0.00 0.00 0.00 54 1021.2
20260831151815 57 157 0.0 0.0 0.00 0.00 0.00 59 1021.2
20260831150815 56 157 0.0 0.0 0.00 0.00 0.00 60 1021.2
20260831145814 56 157 0.0 0.0 0.00 0.00 0.00 60 1021.2
20260831144814 55 157 0.0 0.0 0.00 0.00 0.00 60 1021.1
20260831143815 55 157 0.0 0.0 0.00 0.00 0.00 61 1020.9
20260831142914 55 157 0.0 0.0 0.00 0.00 0.00 59 1020.9
20260831141914 54 157 0.0 0.0 0.00 0.00 0.00 57 1020.9
20260831140917 54 157 0.0 0.0 0.00 0.00 0.00 57 1020.9
20260831140015 55 157 0.0 0.0 0.00 0.00 0.00 55 1020.8
20260831134015 54 157 0.0 0.0 0.00 0.00 0.00 54 1020.7
20260831133033 54 157 0.0 0.0 0.00 0.00 0.00 55 1020.6
20260831132113 54 157 0.0 0.0 0.00 0.00 0.00 54 1020.6
20260831130214 55 157 0.0 0.0 0.00 0.00 0.00 53 1020.5
20260831125214 55 157 0.0 0.0 0.00 0.00 0.00 54 1020.4
20260831124215 55 157 0.0 0.0 0.00 0.00 0.00 53 1020.3
20260831122316 55 157 0.0 0.0 0.00 0.00 0.00 52 1020.5
20260831121317 55 157 0.0 0.0 0.00 0.00 0.00 52 1020.6
20260831120414 55 157 0.0 0.0 0.00 0.00 0.00 52 1020.6
20260831113513 55 157 0.0 0.0 0.00 0.00 0.00 52 1020.7
20260831112516 55 157 0.0 0.0 0.00 0.00 0.00 53 1020.7
20260831111614 55 157 0.0 0.0 0.00 0.00 0.00 52 1020.7
20260831110616 56 157 0.0 0.0 0.00 0.00 0.00 52 1020.7
20260831105614 57 157 0.0 0.0 0.00 0.00 0.00 51 1020.6
20260831104616 56 157 0.0 0.0 0.00 0.00 0.00 51 1020.7
20260831103615 55 157 0.0 0.0 0.00 0.00 0.00 52 1020.7
20260831102615 55 157 0.0 0.0 0.00 0.00 0.00 54 1020.5
20260831100714 55 157 0.0 0.0 0.00 0.00 0.00 55 1020.9
20260831095715 55 157 0.0 0.0 0.00 0.00 0.00 55 1020.7
20260831094715 54 157 0.0 0.0 0.00 0.00 0.00 56 1020.7
20260831093714 54 157 0.0 0.0 0.00 0.00 0.00 57 1020.6
20260831092714 55 157 0.0 0.0 0.00 0.00 0.00 57 1020.8
20260831091814 55 157 0.0 0.0 0.00 0.00 0.00 56 1020.8
20260831090813 55 157 0.0 0.0 0.00 0.00 0.00 55 1020.8
20260831085814 55 157 0.0 0.0 0.00 0.00 0.00 56 1020.9
20260831084814 55 157 0.0 0.0 0.00 0.00 0.00 57 1020.9
20260831083912 55 157 0.0 0.0 0.00 0.00 0.00 58 1021.0
20260831082917 55 157 0.0 0.0 0.00 0.00 0.00 57 1021.0
20260831081917 56 157 0.0 0.0 0.00 0.00 0.00 58 1021.1
20260831081014 55 157 0.0 0.0 0.00 0.00 0.00 57 1021.3
20260831080016 55 157 0.0 0.0 0.00 0.00 0.00 58 1021.3
20260831075114 55 157 0.0 0.0 0.00 0.00 0.00 60 1021.2
20260831074115 55 157 0.0 0.0 0.00 0.00 0.00 61 1021.2
20260831073115 55 157 0.0 0.0 0.00 0.00 0.00 61 1021.2
20260831072115 55 157 0.0 0.0 0.00 0.00 0.00 61 1021.2
20260831070216 56 157 0.0 0.0 0.00 0.00 0.00 62 1021.2
20260831065306 55 157 0.0 0.0 0.00 0.00 0.00 63 1021.2
20260831064305 55 157 0.0 0.0 0.00 0.00 0.00 62 1021.4
20260831063304 56 157 0.0 0.0 0.00 0.00 0.00 62 1021.4
20260831062306 56 157 0.0 0.0 0.00 0.00 0.00 62 1021.3
20260831061318 56 157 0.0 0.0 0.00 0.00 0.00 62 1021.4
20260831060404 55 157 0.0 0.0 0.00 0.00 0.00 63 1021.4
20260831055405 56 157 0.0 0.0 0.00 0.00 0.00 62 1021.5
20260831054405 56 157 0.0 0.0 0.00 0.00 0.00 61 1021.5
20260831052603 56 157 0.0 0.0 0.00 0.00 0.00 62 1021.6
20260831050702 56 157 0.0 0.0 0.00 0.00 0.00 61 1021.6
20260831044802 57 157 0.0 0.0 0.00 0.00 0.00 59 1021.8
20260831042918 57 157 0.0 0.0 0.00 0.00 0.00 59 1021.6
20260831041904 58 157 0.0 0.0 0.00 0.00 0.00 58 1021.7
20260831040905 58 157 0.0 0.0 0.00 0.00 0.00 57 1021.5
20260831035906 59 157 0.0 0.0 0.00 0.00 0.00 57 1021.4
20260831035004 59 157 0.0 0.0 0.00 0.00 0.00 57 1021.4
20260831033103 60 157 0.0 0.0 0.00 0.00 0.00 54 1021.4
20260831032104 61 157 0.0 0.0 0.00 0.00 0.00 54 1021.4
20260831031105 61 157 0.0 0.0 0.00 0.00 0.00 54 1021.4
20260831030118 62 157 0.0 0.0 0.00 0.00 0.00 52 1021.3
20260831030003 62 157 0.0 0.0 0.00 0.00 0.00 52 1021.2
20260831025004 63 157 0.0 0.0 0.00 0.00 0.00 51 1021.2
20260831024005 63 157 0.0 0.0 0.00 0.00 0.00 49 1021.3
20260831023005 64 157 0.0 0.0 0.00 0.00 0.00 49 1021.2
20260831022021 65 157 0.0 0.0 0.00 0.00 0.00 48 1021.2
20260831020104 66 157 0.0 0.0 0.00 0.00 0.00 46 1021.1
20260831015202 67 157 0.0 0.0 0.00 0.00 0.00 44 1021.3
20260831014204 68 157 0.0 0.0 0.00 0.00 0.00 44 1021.2
20260831013205 68 157 0.0 0.0 0.00 0.00 0.00 43 1021.2
20260831011303 69 157 0.0 1.7 0.00 0.00 0.00 40 1021.2
20260831010304 70 157 0.0 0.0 0.00 0.00 0.00 39 1021.1
20260831005306 70 135 1.7 2.6 0.00 0.00 0.00 39 1021.2
20260831004402 70 202 0.0 0.0 0.00 0.00 0.00 38 1021.2
20260831003403 71 225 1.7 3.5 0.00 0.00 0.00 37 1021.1
20260831002407 72 163 0.9 3.5 0.00 0.00 0.00 37 1021.1
20260831001503 72 225 0.0 0.9 0.00 0.00 0.00 37 1021.1
20260831000504 72 202 0.0 0.0 0.00 0.00 0.00 36 1021.1
20260830234505 72 157 0.0 0.0 0.00 0.00 0.00 36 1021.1
20260830233506 73 247 1.7 2.6 0.00 0.00 0.00 34 1021.1
20260830231605 74 157 0.9 2.6 0.00 0.00 0.00 35 1021.2
20260830230703 74 135 0.0 0.9 0.00 0.00 0.00 35 1021.3
20260830225802 74 174 0.9 0.9 0.00 0.00 0.00 35 1021.3
20260830224805 74 205 0.9 2.6 0.00 0.00 0.00 35 1021.3
20260830223806 74 176 0.0 2.6 0.00 0.00 0.00 36 1021.2
20260830222804 74 173 0.0 2.6 0.00 0.00 0.00 35 1021.4
20260830221903 74 295 0.0 0.9 0.00 0.00 0.00 35 1021.4
20260830220905 74 174 0.0 2.6 0.00 0.00 0.00 36 1021.4
20260830215003 74 173 0.9 2.6 0.00 0.00 0.00 36 1021.7
20260830214005 74 166 1.7 4.3 0.00 0.00 0.00 35 1021.7
20260830213018 75 234 2.6 6.1 0.00 0.00 0.00 35 1021.9
20260830212004 76 180 0.9 1.7 0.00 0.00 0.00 33 1021.9
20260830211018 76 281 0.9 2.6 0.00 0.00 0.00 29 1021.9
20260830210020 76 112 0.0 0.0 0.00 0.00 0.00 28 1022.1
20260830205105 77 223 2.6 4.3 0.00 0.00 0.00 27 1022.0
20260830204104 76 157 0.0 1.7 0.00 0.00 0.00 28 1021.9
20260830204005 76 157 0.0 0.9 0.00 0.00 0.00 27 1021.9
20260830203102 75 120 0.0 1.7 0.00 0.00 0.00 25 1021.9
20260830202105 75 161 0.9 3.5 0.00 0.00 0.00 26 1021.9
20260830201104 74 175 3.5 5.2 0.00 0.00 0.00 28 1022.1
20260830200103 74 140 2.6 5.2 0.00 0.00 0.00 30 1021.9
20260830195202 74 152 2.6 4.3 0.00 0.00 0.00 29 1022.1
20260830194203 74 146 1.7 3.5 0.00 0.00 0.00 30 1022.3
20260830193202 73 159 0.9 2.6 0.00 0.00 0.00 31 1022.3
20260830192205 73 225 1.7 3.5 0.00 0.00 0.00 32 1022.2
20260830191302 74 209 2.6 3.5 0.00 0.00 0.00 34 1022.3
20260830190302 73 290 0.9 3.5 0.00 0.00 0.00 35 1022.4
20260830185320 74 220 1.7 2.6 0.00 0.00 0.00 35 1022.5
20260830184402 74 162 2.6 3.5 0.00 0.00 0.00 34 1022.5
20260830183405 73 141 3.5 6.1 0.00 0.00 0.00 37 1022.7
20260830182424 73 225 1.7 1.7 0.00 0.00 0.00 37 1022.6
20260830181424 73 149 1.7 5.2 0.00 0.00 0.00 38 1022.7
20260830174424 69 157 0.9 2.6 0.00 0.00 0.00 43 1022.6
20260830173523 69 182 0.9 1.7 0.00 0.00 0.00 44 1022.7
20260830172524 69 150 2.6 3.5 0.00 0.00 0.00 43 1022.7
20260830171542 69 220 0.9 3.5 0.00 0.00 0.00 42 1022.5
20260830170524 69 225 0.9 3.5 0.00 0.00 0.00 43 1022.6